Voltar ao catálogo

NAVSTAR 70

USA 251

AtivoNavegaçãoHEO
NORAD 39741·PAYLOAD·🇺🇸 United States

Lançado May 17, 2014 de Cape Canaveral Space Force Station

Loading…

Próximas Passagens (próximas 24 horas)

TLE

AtualizadoSource: CelesTrak SupGP

Época: Sep 16, 2026, 16:44 UTC

1 39741C 14026A   26259.69756944  .00000000  00000+0  00000+0 0  2598
2 39741  56.4473 327.9521 0039449 324.1902  31.0623  2.00554770    10

Acompanhe NAVSTAR 70 em tempo real com AllMySat

Download on the App Store